Location: Unspecified
(0.0000°N, 0.0000°E)
Time: 19:12:33
(UTC+00:00)

Courier 1B - Pass Details

Date: 27 November 2019
Orbit: 962 x 1209 km, 28.3° (Epoch: 13 July)

Event Time Altitude Azimuth Distance (km) Brightness Sun altitude
Rises 21:56:03 0° 237° (WSW) 4,026 11.2 -55.5°
Reaches altitude 10° 21:58:50 10° 236° (SW) 3,089 10.5 -56.0°
Enters shadow 21:58:52 10° 236° (SW) 3,082 10.5 -56.0°
